sat.trackr.live / text

‹ back to catalog

HYDRA-2

NORAD 67389 · 2026-004AC

PAYLOAD ACTIVE UNKNOWN

§ Identity

Operator
Country
SPN
Launch date
2026-01-11
Launch site
AFWTR
Launch vehicle
Mass (kg)
RCS (m²)

External: N2YO · Heavens-Above · Gunter

§ Orbital elements

Epoch: 2026-05-25T00:01:22.185408Z

Period
94.85 min
Inclination
97.4585°
Eccentricity
0.0005097
Mean motion
15.18263824 rev/d
Perigee alt
507.6 km
Apogee alt
514.6 km
Semi-major
6,889.2 km
B*
2.4192e-4
RAAN
144.3787°
Arg perigee
72.2851°
Mean anomaly
287.8939°
Rev number
2,023

§ Raw data

HYDRA-21 67389U 26004AC  26145.00095122  .00004890  00000+0  24192-3 0  99932 67389  97.4585 144.3787 0005097  72.2851 287.8939 15.18263824 20236

JSON: /api/v1/satellites/67389 · /tle

For live sub-satellite position, see the globe view (requires WebGL).

§ Visibility from observer

Set your observer location to see the next 7 days of passes ≥ 10°. The values pass through the URL so the page stays shareable.

No JS? Fill the form by hand. The geolocation button needs JavaScript.